TimeCST,TemperatureF,Dew PointF,Humidity,Sea Level PressureIn,VisibilityMPH,Wind Direction,Wind SpeedMPH,Gust SpeedMPH,PrecipitationIn,Events,Conditions,WindDirDegrees,DateUTC
12:15 AM,63.9,11.1,13,29.84,10.0,WSW,15.0,-,N/A,,Clear,240,2013-03-04 06:15:00
12:35 AM,63.3,11.1,13,29.84,10.0,SW,17.3,-,N/A,,Clear,230,2013-03-04 06:35:00
12:55 AM,65.3,12.0,13,29.84,10.0,WSW,17.3,-,N/A,,Clear,240,2013-03-04 06:55:00
1:15 AM,66.2,12.7,13,29.84,10.0,WSW,18.4,-,N/A,,Clear,240,2013-03-04 07:15:00
1:55 AM,64.0,12.2,13,29.84,10.0,WSW,18.4,-,N/A,,Clear,240,2013-03-04 07:55:00
2:15 AM,63.1,11.3,13,29.84,10.0,SW,12.7,-,N/A,,Clear,230,2013-03-04 08:15:00
2:35 AM,60.1,10.8,14,29.84,10.0,SW,15.0,-,N/A,,Clear,230,2013-03-04 08:35:00
2:55 AM,59.0,10.4,15,29.84,10.0,SW,15.0,-,N/A,,Clear,230,2013-03-04 08:55:00
3:15 AM,58.5,10.4,15,29.84,10.0,SW,12.7,-,N/A,,Clear,230,2013-03-04 09:15:00
3:35 AM,57.7,10.8,16,29.83,10.0,SW,11.5,-,N/A,,Clear,230,2013-03-04 09:35:00
3:55 AM,57.0,10.8,16,29.83,10.0,SW,11.5,-,N/A,,Clear,230,2013-03-04 09:55:00
4:15 AM,55.2,11.3,17,29.83,10.0,South,10.4,-,N/A,,Clear,190,2013-03-04 10:15:00
4:35 AM,53.2,10.6,18,29.83,10.0,SSW,8.1,-,N/A,,Clear,200,2013-03-04 10:35:00
4:55 AM,53.4,11.5,19,29.83,10.0,SW,11.5,-,N/A,,Clear,230,2013-03-04 10:55:00
5:15 AM,57.2,11.3,16,29.83,10.0,SW,12.7,-,N/A,,Clear,230,2013-03-04 11:15:00
5:55 AM,56.3,11.5,17,29.84,10.0,SW,11.5,-,N/A,,Clear,220,2013-03-04 11:55:00
6:15 AM,54.7,12.2,19,29.85,10.0,SSW,9.2,-,N/A,,Clear,210,2013-03-04 12:15:00
6:35 AM,52.3,12.2,20,29.86,10.0,SSW,9.2,-,N/A,,Clear,210,2013-03-04 12:35:00
6:55 AM,54.9,11.8,18,29.86,10.0,South,9.2,-,N/A,,Clear,190,2013-03-04 12:55:00
7:15 AM,55.2,12.2,18,29.85,10.0,SSW,9.2,-,N/A,,Clear,210,2013-03-04 13:15:00
7:35 AM,55.4,13.3,19,29.86,10.0,SSW,10.4,-,N/A,,Clear,200,2013-03-04 13:35:00
7:55 AM,57.4,14.9,19,29.86,10.0,SW,11.5,-,N/A,,Clear,220,2013-03-04 13:55:00
8:15 AM,59.0,15.4,18,29.88,10.0,SW,10.4,-,N/A,,Clear,220,2013-03-04 14:15:00
8:35 AM,59.9,15.6,18,29.88,10.0,SW,10.4,-,N/A,,Clear,220,2013-03-04 14:35:00
8:55 AM,61.0,16.7,18,29.88,10.0,SW,11.5,-,N/A,,Clear,220,2013-03-04 14:55:00
9:55 AM,68.0,19.2,16,29.88,10.0,SW,11.5,-,N/A,,Clear,220,2013-03-04 15:55:00
10:35 AM,73.8,19.4,13,29.87,10.0,SW,10.4,-,N/A,,Clear,220,2013-03-04 16:35:00
11:35 AM,80.6,19.6,10,29.85,10.0,WSW,28.8,35.7,N/A,,Clear,240,2013-03-04 17:35:00
11:55 AM,80.6,19.0,10,29.84,10.0,WSW,24.2,33.4,N/A,,Clear,250,2013-03-04 17:55:00
12:55 PM,81.7,15.6,8,29.81,10.0,West,15.0,25.3,N/A,,Clear,260,2013-03-04 18:55:00
1:35 PM,83.7,14.9,8,29.79,10.0,WSW,23.0,31.1,N/A,,Clear,250,2013-03-04 19:35:00
1:55 PM,83.7,13.1,7,29.77,10.0,West,27.6,35.7,N/A,,Clear,270,2013-03-04 19:55:00
2:15 PM,84.0,11.1,6,29.76,10.0,West,21.9,41.4,N/A,,Clear,260,2013-03-04 20:15:00
3:15 PM,84.7,13.1,7,29.74,10.0,WSW,27.6,39.1,N/A,,Clear,240,2013-03-04 21:15:00
3:55 PM,84.0,14.7,8,29.74,10.0,WSW,20.7,31.1,N/A,,Clear,250,2013-03-04 21:55:00
4:55 PM,84.6,14.2,7,29.72,10.0,WSW,21.9,28.8,N/A,,Clear,240,2013-03-04 22:55:00
5:35 PM,82.9,13.5,7,29.72,5.0,WSW,20.7,33.4,N/A,,Haze,240,2013-03-04 23:35:00
5:55 PM,82.6,14.4,8,29.72,5.0,WSW,20.7,27.6,N/A,,Haze,240,2013-03-04 23:55:00
6:15 PM,81.7,14.7,8,29.72,5.0,WSW,13.8,25.3,N/A,,Haze,240,2013-03-05 00:15:00
6:55 PM,78.8,13.6,9,29.73,5.0,West,11.5,-,N/A,,Haze,260,2013-03-05 00:55:00
7:15 PM,77.9,21.9,12,29.75,4.0,West,13.8,-,N/A,,Haze,270,2013-03-05 01:15:00
7:35 PM,77.9,28.0,16,29.76,3.0,West,15.0,-,N/A,,Haze,270,2013-03-05 01:35:00
7:55 PM,77.4,27.9,16,29.78,3.0,West,15.0,20.7,N/A,,Haze,270,2013-03-05 01:55:00
8:35 PM,76.5,27.5,16,29.80,4.0,West,15.0,-,N/A,,Haze,270,2013-03-05 02:35:00
8:55 PM,75.4,26.8,17,29.82,5.0,West,15.0,-,N/A,,Haze,270,2013-03-05 02:55:00
9:55 PM,73.0,26.2,18,29.86,5.0,WNW,12.7,-,N/A,,Haze,290,2013-03-05 03:55:00
10:15 PM,71.6,25.7,18,29.88,10.0,WNW,15.0,-,N/A,,Overcast,300,2013-03-05 04:15:00
10:35 PM,71.2,24.4,17,29.90,10.0,WNW,15.0,23.0,N/A,,Overcast,300,2013-03-05 04:35:00
10:55 PM,69.8,23.9,18,29.92,10.0,WNW,16.1,-,N/A,,Mostly Cloudy,300,2013-03-05 04:55:00
11:15 PM,68.4,22.8,18,29.93,10.0,WNW,12.7,-,N/A,,Overcast,290,2013-03-05 05:15:00
11:35 PM,67.3,21.9,18,29.95,10.0,North,12.7,-,N/A,,Mostly Cloudy,350,2013-03-05 05:35:00
11:55 PM,66.7,21.9,18,29.96,10.0,NNW,10.4,-,N/A,,Mostly Cloudy,340,2013-03-05 05:55:00